Location: Bilsen
(53.7722°N, 9.8765°E)
Time: 11:37:00
(UTC+00:00)

Cosmos 2322 Rocket - Pass Details

Date: 18 February 2020
Orbit: 833 x 851 km, 71.0° (Epoch: 08 April)

Event Time Altitude Azimuth Distance (km) Brightness Sun altitude
Exits shadow 03:42:15 16° 333° (NNW) 2,065 4.1 -26.0°
Maximum altitude 03:42:56 17° 341° (NNW) 2,048 4.1 -25.9°
Drops below altitude 10° 03:46:33 10° 21° (NNE) 2,491 5.1 -25.3°
Sets 03:49:59 0° 42° (NE) 3,427 6.2 -24.8°
